Simultaneous Nadir Overpasses (SNOs) Predictions

Prediction of SNOs between TERRA and METOP-C Satellite Orbit:

Table of predicted SNOs for the next 14.0 days since TLE Epoch: 10/2/2021
Index Date (TERRA) Time (TERRA) Lat,Lon (TERRA) SZA (TERRA ) Date (METOP-C) Time (METOP-C) Lat,Lon (METOP-C) SZA (METOP-C ) Distance(km) Time Diff (sec)
1 10/02/2021 20:06:05 81.21, -77.68 87.81 10/02/2021 20:04:59 81.22, -77.55 87.80 2.35 66
2 10/02/2021 20:55:31 -81.22, 90.24 92.14 10/02/2021 20:55:39 -81.23, 90.31 92.12 1.16 8
3 10/05/2021 15:40:16 81.22, -10.96 88.96 10/05/2021 15:39:23 81.22, -11.07 88.91 2.12 53
4 10/05/2021 16:29:43 -81.22, 156.62 91.05 10/05/2021 16:30:04 -81.22, 156.48 91.05 2.41 21
5 10/08/2021 11:14:27 81.22, 55.35 90.03 10/08/2021 11:13:46 81.22, 55.39 90.01 0.70 41
6 10/08/2021 12:03:53 -81.24,-136.68 89.91 10/08/2021 12:04:26 -81.23,-136.61 89.89 1.26 33
7 10/11/2021 06:48:38 81.23, 121.97 91.13 10/11/2021 06:48:10 81.22, 121.81 91.10 2.78 28
8 10/11/2021 07:38:05 -81.23, -70.40 88.86 10/11/2021 07:38:51 -81.23, -70.50 88.85 1.67 46
9 10/14/2021 02:22:50 81.21,-171.84 92.16 10/14/2021 02:22:34 81.22,-171.79 92.16 1.08 16



Historial Predications of SNOs between TERRA and METOP-C
